Year,Month,Day,Hour,Minute,Value (Times are PST for temperature in C)
2018,08,18,00,00,14.60
2018,08,18,00,01,14.60
2018,08,18,00,02,14.60
2018,08,18,00,03,14.60
2018,08,18,00,04,14.50
2018,08,18,00,05,14.50
2018,08,18,00,06,14.50
2018,08,18,00,07,14.50
2018,08,18,00,08,14.50
2018,08,18,00,09,14.60
2018,08,18,00,10,14.50
2018,08,18,00,11,14.50
2018,08,18,00,12,14.60
2018,08,18,00,13,14.50
2018,08,18,00,14,14.50
2018,08,18,00,15,14.60
2018,08,18,00,16,14.60
2018,08,18,00,17,14.60
2018,08,18,00,18,14.60
2018,08,18,00,19,14.60
2018,08,18,00,20,14.60
2018,08,18,00,21,14.60
2018,08,18,00,22,14.60
2018,08,18,00,23,14.60
2018,08,18,00,24,14.60
2018,08,18,00,25,14.50
2018,08,18,00,26,14.60
2018,08,18,00,27,14.60
2018,08,18,00,28,14.60
2018,08,18,00,29,14.60
2018,08,18,00,30,14.60
2018,08,18,00,31,14.60
2018,08,18,00,32,14.70
2018,08,18,00,33,14.70
2018,08,18,00,34,14.70
2018,08,18,00,35,14.60
2018,08,18,00,36,14.70
2018,08,18,00,37,14.60
2018,08,18,00,38,14.60
2018,08,18,00,39,14.60
2018,08,18,00,40,14.60
2018,08,18,00,41,14.60
2018,08,18,00,42,14.60
2018,08,18,00,43,14.50
2018,08,18,00,44,14.50
2018,08,18,00,45,14.50
2018,08,18,00,46,14.50
2018,08,18,00,47,14.40
2018,08,18,00,48,14.40
2018,08,18,00,49,14.40
2018,08,18,00,50,14.40
2018,08,18,00,51,14.30
2018,08,18,00,52,14.30
2018,08,18,00,53,14.30
2018,08,18,00,54,14.30
2018,08,18,00,55,14.20
2018,08,18,00,56,14.20
2018,08,18,00,57,14.20
2018,08,18,00,58,14.20
2018,08,18,00,59,14.10
2018,08,18,01,00,14.10
2018,08,18,01,01,14.10
2018,08,18,01,02,14.00
2018,08,18,01,03,14.00
2018,08,18,01,04,13.90
2018,08,18,01,05,13.90
2018,08,18,01,06,13.90
2018,08,18,01,07,13.90
2018,08,18,01,08,13.90
2018,08,18,01,09,13.80
2018,08,18,01,10,13.80
2018,08,18,01,11,13.80
2018,08,18,01,12,13.80
2018,08,18,01,13,13.80
2018,08,18,01,14,13.80
2018,08,18,01,15,13.80
2018,08,18,01,16,13.80
2018,08,18,01,17,13.80
2018,08,18,01,18,13.80
2018,08,18,01,19,13.80
2018,08,18,01,20,13.80
2018,08,18,01,21,13.80
2018,08,18,01,22,13.80
2018,08,18,01,23,13.80
2018,08,18,01,24,13.80
2018,08,18,01,25,13.90
2018,08,18,01,26,13.90
2018,08,18,01,27,14.00
2018,08,18,01,28,14.00
2018,08,18,01,29,14.10
2018,08,18,01,30,14.10
2018,08,18,01,31,14.20
2018,08,18,01,32,14.20
2018,08,18,01,33,14.20
2018,08,18,01,34,14.20
2018,08,18,01,35,14.20
2018,08,18,01,36,14.20
2018,08,18,01,37,14.30
2018,08,18,01,38,14.20
2018,08,18,01,39,14.20
2018,08,18,01,40,14.20
2018,08,18,01,41,14.20
2018,08,18,01,42,14.20
2018,08,18,01,43,14.20
2018,08,18,01,44,14.20
2018,08,18,01,45,14.10
2018,08,18,01,46,14.10
2018,08,18,01,47,14.10
2018,08,18,01,48,14.10
2018,08,18,01,49,14.00
2018,08,18,01,50,14.00
2018,08,18,01,51,13.90
2018,08,18,01,52,13.90
2018,08,18,01,53,13.90
2018,08,18,01,54,13.90
2018,08,18,01,55,13.90
2018,08,18,01,56,13.90
2018,08,18,01,57,13.80
2018,08,18,01,58,13.80
2018,08,18,01,59,13.80
2018,08,18,02,00,13.80
2018,08,18,02,01,13.80
2018,08,18,02,02,13.80
2018,08,18,02,03,13.80
2018,08,18,02,04,13.80
2018,08,18,02,05,13.80
2018,08,18,02,06,13.80
2018,08,18,02,07,13.80
2018,08,18,02,08,13.70
2018,08,18,02,09,13.70
2018,08,18,02,10,13.70
2018,08,18,02,11,13.70
2018,08,18,02,12,13.70
2018,08,18,02,13,13.70
2018,08,18,02,14,13.70
2018,08,18,02,15,13.70
2018,08,18,02,16,13.70
2018,08,18,02,17,13.70
2018,08,18,02,18,13.70
2018,08,18,02,19,13.70
2018,08,18,02,20,13.70
2018,08,18,02,21,13.70
2018,08,18,02,22,13.70
2018,08,18,02,23,13.70
2018,08,18,02,24,13.70
2018,08,18,02,25,13.60
2018,08,18,02,26,13.60
2018,08,18,02,27,13.60
2018,08,18,02,28,13.60
2018,08,18,02,29,13.70
2018,08,18,02,30,13.70
2018,08,18,02,31,13.70
2018,08,18,02,32,13.80
2018,08,18,02,33,13.80
2018,08,18,02,34,13.80
2018,08,18,02,35,13.80
2018,08,18,02,36,13.80
2018,08,18,02,37,13.90
2018,08,18,02,38,13.90
2018,08,18,02,39,13.90
2018,08,18,02,40,13.90
2018,08,18,02,41,14.00
2018,08,18,02,42,14.00
2018,08,18,02,43,14.00
2018,08,18,02,44,14.00
2018,08,18,02,45,14.00
2018,08,18,02,46,14.00
2018,08,18,02,47,14.00
2018,08,18,02,48,14.00
2018,08,18,02,49,14.00
2018,08,18,02,50,14.00
2018,08,18,02,51,14.00
2018,08,18,02,52,13.90
2018,08,18,02,53,13.90
2018,08,18,02,54,13.90
2018,08,18,02,55,13.90
2018,08,18,02,56,13.90
2018,08,18,02,57,13.90
2018,08,18,02,58,13.90
2018,08,18,02,59,13.90
2018,08,18,03,00,13.90
2018,08,18,03,01,13.90
2018,08,18,03,02,13.90
2018,08,18,03,03,13.90
2018,08,18,03,04,13.90
2018,08,18,03,05,13.90
2018,08,18,03,06,13.90
2018,08,18,03,07,13.90
2018,08,18,03,08,13.90
2018,08,18,03,09,13.90
2018,08,18,03,10,13.90
2018,08,18,03,11,13.90
2018,08,18,03,12,13.80
2018,08,18,03,13,13.80
2018,08,18,03,14,13.80
2018,08,18,03,15,13.80
2018,08,18,03,16,13.80
2018,08,18,03,17,13.80
2018,08,18,03,18,13.80
2018,08,18,03,19,13.80
2018,08,18,03,20,13.80
2018,08,18,03,21,13.80
2018,08,18,03,22,13.70
2018,08,18,03,23,13.70
2018,08,18,03,24,13.70
2018,08,18,03,25,13.70
2018,08,18,03,26,13.70
2018,08,18,03,27,13.70
2018,08,18,03,28,13.70
2018,08,18,03,29,13.70
2018,08,18,03,30,13.60
2018,08,18,03,31,13.60
2018,08,18,03,32,13.60
2018,08,18,03,33,13.60
2018,08,18,03,34,13.50
2018,08,18,03,35,13.50
2018,08,18,03,36,13.50
2018,08,18,03,37,13.50
2018,08,18,03,38,13.50
2018,08,18,03,39,13.40
2018,08,18,03,40,13.40
2018,08,18,03,41,13.40
2018,08,18,03,42,13.40
2018,08,18,03,43,13.40
2018,08,18,03,44,13.30
2018,08,18,03,45,13.30
2018,08,18,03,46,13.30
2018,08,18,03,47,13.30
2018,08,18,03,48,13.30
2018,08,18,03,49,13.20
2018,08,18,03,50,13.20
2018,08,18,03,51,13.20
2018,08,18,03,52,13.20
2018,08,18,03,53,13.20
2018,08,18,03,54,13.10
2018,08,18,03,55,13.10
2018,08,18,03,56,13.10
2018,08,18,03,57,13.10
2018,08,18,03,58,13.10
2018,08,18,03,59,13.10
2018,08,18,04,00,13.00
2018,08,18,04,01,13.00
2018,08,18,04,02,13.00
2018,08,18,04,03,12.90
2018,08,18,04,04,12.90
2018,08,18,04,05,12.90
2018,08,18,04,06,12.90
2018,08,18,04,07,12.90
2018,08,18,04,08,12.90
2018,08,18,04,09,12.90
2018,08,18,04,10,12.90
2018,08,18,04,11,12.80
2018,08,18,04,12,12.80
2018,08,18,04,13,12.80
2018,08,18,04,14,12.80
2018,08,18,04,15,12.80
2018,08,18,04,16,12.80
2018,08,18,04,17,12.80
2018,08,18,04,18,12.70
2018,08,18,04,19,12.70
2018,08,18,04,20,12.70
2018,08,18,04,21,12.70
2018,08,18,04,22,12.70
2018,08,18,04,23,12.70
2018,08,18,04,24,12.60
2018,08,18,04,25,12.60
2018,08,18,04,26,12.60
2018,08,18,04,27,12.60
2018,08,18,04,28,12.60
2018,08,18,04,29,12.60
2018,08,18,04,30,12.60
2018,08,18,04,31,12.60
2018,08,18,04,32,12.50
2018,08,18,04,33,12.50
2018,08,18,04,34,12.50
2018,08,18,04,35,12.40
2018,08,18,04,36,12.40
2018,08,18,04,37,12.40
2018,08,18,04,38,12.40
2018,08,18,04,39,12.40
2018,08,18,04,40,12.40
2018,08,18,04,41,12.40
2018,08,18,04,42,12.40
2018,08,18,04,43,12.40
2018,08,18,04,44,12.40
2018,08,18,04,45,12.30
2018,08,18,04,46,12.30
2018,08,18,04,47,12.30
2018,08,18,04,48,12.30
2018,08,18,04,49,12.30
2018,08,18,04,50,12.30
2018,08,18,04,51,12.20
2018,08,18,04,52,12.20
2018,08,18,04,53,12.20
2018,08,18,04,54,12.10
2018,08,18,04,55,12.10
2018,08,18,04,56,12.10
2018,08,18,04,57,12.00
2018,08,18,04,58,12.00
2018,08,18,04,59,12.00
2018,08,18,05,00,12.00
2018,08,18,05,01,11.90
2018,08,18,05,02,11.90
2018,08,18,05,03,11.90
2018,08,18,05,04,11.90
2018,08,18,05,05,11.90
2018,08,18,05,06,11.80
2018,08,18,05,07,11.80
2018,08,18,05,08,11.80
2018,08,18,05,09,11.80
2018,08,18,05,10,11.80
2018,08,18,05,11,11.80
2018,08,18,05,12,11.80
2018,08,18,05,13,11.80
2018,08,18,05,14,11.80
2018,08,18,05,15,11.70
2018,08,18,05,16,11.70
2018,08,18,05,17,11.70
2018,08,18,05,18,11.70
2018,08,18,05,19,11.70
2018,08,18,05,20,11.70
2018,08,18,05,21,11.70
2018,08,18,05,22,11.70
2018,08,18,05,23,11.70
2018,08,18,05,24,11.70
2018,08,18,05,25,11.60
2018,08,18,05,26,11.60
2018,08,18,05,27,11.60
2018,08,18,05,28,11.60
2018,08,18,05,29,11.60
2018,08,18,05,30,11.60
2018,08,18,05,31,11.50
2018,08,18,05,32,11.50
2018,08,18,05,33,11.50
2018,08,18,05,34,11.50
2018,08,18,05,35,11.40
2018,08,18,05,36,11.40
2018,08,18,05,37,11.40
2018,08,18,05,38,11.40
2018,08,18,05,39,11.40
2018,08,18,05,40,11.40
2018,08,18,05,41,11.40
2018,08,18,05,42,11.40
2018,08,18,05,43,11.40
2018,08,18,05,44,11.40
2018,08,18,05,45,11.40
2018,08,18,05,46,11.40
2018,08,18,05,47,11.40
2018,08,18,05,48,11.40
2018,08,18,05,49,11.40
2018,08,18,05,50,11.40
2018,08,18,05,51,11.40
2018,08,18,05,52,11.40
2018,08,18,05,53,11.40
2018,08,18,05,54,11.40
2018,08,18,05,55,11.40
2018,08,18,05,56,11.40
2018,08,18,05,57,11.30
2018,08,18,05,58,11.30
2018,08,18,05,59,11.30
2018,08,18,06,00,11.30
2018,08,18,06,01,11.20
2018,08,18,06,02,11.20
2018,08,18,06,03,11.20
2018,08,18,06,04,11.20
2018,08,18,06,05,11.20
2018,08,18,06,06,11.20
2018,08,18,06,07,11.20
2018,08,18,06,08,11.20
2018,08,18,06,09,11.20
2018,08,18,06,10,11.20
2018,08,18,06,11,11.20
2018,08,18,06,12,11.20
2018,08,18,06,13,11.20
2018,08,18,06,14,11.20
2018,08,18,06,15,11.20
2018,08,18,06,16,11.20
2018,08,18,06,17,11.20
2018,08,18,06,18,11.20
2018,08,18,06,19,11.20
2018,08,18,06,20,11.20
2018,08,18,06,21,11.20
2018,08,18,06,22,11.20
2018,08,18,06,23,11.20
2018,08,18,06,24,11.20
2018,08,18,06,25,11.30
2018,08,18,06,26,11.30
2018,08,18,06,27,11.40
2018,08,18,06,28,11.40
2018,08,18,06,29,11.40
2018,08,18,06,30,11.40
2018,08,18,06,31,11.40
2018,08,18,06,32,11.40
2018,08,18,06,33,11.50
2018,08,18,06,34,11.50
2018,08,18,06,35,11.50
2018,08,18,06,36,11.50
2018,08,18,06,37,11.50
2018,08,18,06,38,11.50
2018,08,18,06,39,11.50
2018,08,18,06,40,11.60
2018,08,18,06,41,11.60
2018,08,18,06,42,11.60
2018,08,18,06,43,11.70
2018,08,18,06,44,11.70
2018,08,18,06,45,11.70
2018,08,18,06,46,11.70
2018,08,18,06,47,11.80
2018,08,18,06,48,11.80
2018,08,18,06,49,11.80
2018,08,18,06,50,11.80
2018,08,18,06,51,11.90
2018,08,18,06,52,11.90
2018,08,18,06,53,11.90
2018,08,18,06,54,11.90
2018,08,18,06,55,12.00
2018,08,18,06,56,12.00
2018,08,18,06,57,12.10
2018,08,18,06,58,12.10
2018,08,18,06,59,12.10
2018,08,18,07,00,12.20
2018,08,18,07,01,12.20
2018,08,18,07,02,12.30
2018,08,18,07,03,12.30
2018,08,18,07,04,12.40
2018,08,18,07,05,12.40
2018,08,18,07,06,12.50
2018,08,18,07,07,12.60
2018,08,18,07,08,12.60
2018,08,18,07,09,12.70
2018,08,18,07,10,12.70
2018,08,18,07,11,12.80
2018,08,18,07,12,12.90
2018,08,18,07,13,13.00
2018,08,18,07,14,13.10
2018,08,18,07,15,13.10
2018,08,18,07,16,13.20
2018,08,18,07,17,13.30
2018,08,18,07,18,13.40
2018,08,18,07,19,13.40
2018,08,18,07,20,13.50
2018,08,18,07,21,13.70
2018,08,18,07,22,13.70
2018,08,18,07,23,13.80
2018,08,18,07,24,13.90
2018,08,18,07,25,14.00
2018,08,18,07,26,14.00
2018,08,18,07,27,14.10
2018,08,18,07,28,14.20
2018,08,18,07,29,14.20
2018,08,18,07,30,14.30
2018,08,18,07,31,14.40
2018,08,18,07,32,14.40
2018,08,18,07,33,14.50
2018,08,18,07,34,14.60
2018,08,18,07,35,14.60
2018,08,18,07,36,14.70
2018,08,18,07,37,14.80
2018,08,18,07,38,14.90
2018,08,18,07,39,15.00
2018,08,18,07,40,15.00
2018,08,18,07,41,15.10
2018,08,18,07,42,15.10
2018,08,18,07,43,15.20
2018,08,18,07,44,15.20
2018,08,18,07,45,15.30
2018,08,18,07,46,15.30
2018,08,18,07,47,15.30
2018,08,18,07,48,15.40
2018,08,18,07,49,15.40
2018,08,18,07,50,15.50
2018,08,18,07,51,15.50
2018,08,18,07,52,15.60
2018,08,18,07,53,15.60
2018,08,18,07,54,15.60
2018,08,18,07,55,15.70
2018,08,18,07,56,15.80
2018,08,18,07,57,15.80
2018,08,18,07,58,15.80
2018,08,18,07,59,15.90
2018,08,18,08,00,15.90
2018,08,18,08,01,16.00
2018,08,18,08,02,16.00
2018,08,18,08,03,16.10
2018,08,18,08,04,16.10
2018,08,18,08,05,16.20
2018,08,18,08,06,16.20
2018,08,18,08,07,16.20
2018,08,18,08,08,16.30
2018,08,18,08,09,16.30
2018,08,18,08,10,16.40
2018,08,18,08,11,16.40
2018,08,18,08,12,16.50
2018,08,18,08,13,16.50
2018,08,18,08,14,16.50
2018,08,18,08,15,16.60
2018,08,18,08,16,16.60
2018,08,18,08,17,16.70
2018,08,18,08,18,16.70
2018,08,18,08,19,16.80
2018,08,18,08,20,16.80
2018,08,18,08,21,16.80
2018,08,18,08,22,16.90
2018,08,18,08,23,17.00
2018,08,18,08,24,17.10
2018,08,18,08,25,17.10
2018,08,18,08,26,17.20
2018,08,18,08,27,17.20
2018,08,18,08,28,17.30
2018,08,18,08,29,17.30
2018,08,18,08,30,17.40
2018,08,18,08,31,17.40
2018,08,18,08,32,17.40
2018,08,18,08,33,17.50
2018,08,18,08,34,17.50
2018,08,18,08,35,17.60
2018,08,18,08,36,17.60
2018,08,18,08,37,17.70
2018,08,18,08,38,17.60
2018,08,18,08,39,17.60
2018,08,18,08,40,17.70
2018,08,18,08,41,17.70
2018,08,18,08,42,17.70
2018,08,18,08,43,17.70
2018,08,18,08,44,17.70
2018,08,18,08,45,17.80
2018,08,18,08,46,17.80
2018,08,18,08,47,17.80
2018,08,18,08,48,17.80
2018,08,18,08,49,17.80
2018,08,18,08,50,17.80
2018,08,18,08,51,17.90
2018,08,18,08,52,18.00
2018,08,18,08,53,18.10
2018,08,18,08,54,18.20
2018,08,18,08,55,18.20
2018,08,18,08,56,18.20
2018,08,18,08,57,18.20
2018,08,18,08,58,18.20
2018,08,18,08,59,18.20
2018,08,18,09,00,18.20
2018,08,18,09,01,18.20
2018,08,18,09,02,18.20
2018,08,18,09,03,18.30
2018,08,18,09,04,18.30
2018,08,18,09,05,18.40
2018,08,18,09,06,18.40
2018,08,18,09,07,18.40
2018,08,18,09,08,18.50
2018,08,18,09,09,18.60
2018,08,18,09,10,18.60
2018,08,18,09,11,18.60
2018,08,18,09,12,18.70
2018,08,18,09,13,18.80
2018,08,18,09,14,18.90
2018,08,18,09,15,18.80
2018,08,18,09,16,18.80
2018,08,18,09,17,18.70
2018,08,18,09,18,18.60
2018,08,18,09,19,18.60
2018,08,18,09,20,18.70
2018,08,18,09,21,18.70
2018,08,18,09,22,18.70
2018,08,18,09,23,18.70
2018,08,18,09,24,18.70
2018,08,18,09,25,18.70
2018,08,18,09,26,18.60
2018,08,18,09,27,18.60
2018,08,18,09,28,18.60
2018,08,18,09,29,18.60
2018,08,18,09,30,18.60
2018,08,18,09,31,18.60
2018,08,18,09,32,18.70
2018,08,18,09,33,18.70
2018,08,18,09,34,18.80
2018,08,18,09,35,18.90
2018,08,18,09,36,19.00
2018,08,18,09,37,19.20
2018,08,18,09,38,19.30
2018,08,18,09,39,19.40
2018,08,18,09,40,19.50
2018,08,18,09,41,19.50
2018,08,18,09,42,19.50
2018,08,18,09,43,19.50
2018,08,18,09,44,19.50
2018,08,18,09,45,19.60
2018,08,18,09,46,19.60
2018,08,18,09,47,19.60
2018,08,18,09,48,19.60
2018,08,18,09,49,19.70
2018,08,18,09,50,19.70
2018,08,18,09,51,19.80
2018,08,18,09,52,19.80
2018,08,18,09,53,19.80
2018,08,18,09,54,19.90
2018,08,18,09,55,19.90
2018,08,18,09,56,19.70
2018,08,18,09,57,19.60
2018,08,18,09,58,19.50
2018,08,18,09,59,19.30
2018,08,18,10,00,19.30
2018,08,18,10,01,19.30
2018,08,18,10,02,19.10
2018,08,18,10,03,19.00
2018,08,18,10,04,18.90
2018,08,18,10,05,18.90
2018,08,18,10,06,18.90
2018,08,18,10,07,18.90
2018,08,18,10,08,19.00
2018,08,18,10,09,19.00
2018,08,18,10,10,19.00
2018,08,18,10,11,19.00
2018,08,18,10,12,19.00
2018,08,18,10,13,19.00
2018,08,18,10,14,19.10
2018,08,18,10,15,19.20
2018,08,18,10,16,19.30
2018,08,18,10,17,19.30
2018,08,18,10,18,19.40
2018,08,18,10,19,19.40
2018,08,18,10,20,19.50
2018,08,18,10,21,19.60
2018,08,18,10,22,19.60
2018,08,18,10,23,19.70
2018,08,18,10,24,19.70
2018,08,18,10,25,19.80
2018,08,18,10,26,19.80
2018,08,18,10,27,19.80
2018,08,18,10,28,19.80
2018,08,18,10,29,19.90
2018,08,18,10,30,19.90
2018,08,18,10,31,20.00
2018,08,18,10,32,20.10
2018,08,18,10,33,20.10
2018,08,18,10,34,20.00
2018,08,18,10,35,20.00
2018,08,18,10,36,19.90
2018,08,18,10,37,19.90
2018,08,18,10,38,19.90
2018,08,18,10,39,19.90
2018,08,18,10,40,19.90
2018,08,18,10,41,20.00
2018,08,18,10,42,20.10
2018,08,18,10,43,20.10
2018,08,18,10,44,20.20
2018,08,18,10,45,20.20
2018,08,18,10,46,20.20
2018,08,18,10,47,20.20
2018,08,18,10,48,20.30
2018,08,18,10,49,20.20
2018,08,18,10,50,20.20
2018,08,18,10,51,20.10
2018,08,18,10,52,20.10
2018,08,18,10,53,20.20
2018,08,18,10,54,20.20
2018,08,18,10,55,20.20
2018,08,18,10,56,20.20
2018,08,18,10,57,20.10
2018,08,18,10,58,20.10
2018,08,18,10,59,20.10
2018,08,18,11,00,20.10
2018,08,18,11,01,20.10
2018,08,18,11,02,20.20
2018,08,18,11,03,20.20
2018,08,18,11,04,20.30
2018,08,18,11,05,20.40
2018,08,18,11,06,20.40
2018,08,18,11,07,20.30
2018,08,18,11,08,20.30
2018,08,18,11,09,20.20
2018,08,18,11,10,20.20
2018,08,18,11,11,20.20
2018,08,18,11,12,20.20
2018,08,18,11,13,20.40
2018,08,18,11,14,20.50
2018,08,18,11,15,20.50
2018,08,18,11,16,20.50
2018,08,18,11,17,20.40
2018,08,18,11,18,20.30
2018,08,18,11,19,20.20
2018,08,18,11,20,20.20
2018,08,18,11,21,20.20
2018,08,18,11,22,20.20
2018,08,18,11,23,20.10
2018,08,18,11,24,20.20
2018,08,18,11,25,20.10
2018,08,18,11,26,20.00
2018,08,18,11,27,19.90
2018,08,18,11,28,19.80
2018,08,18,11,29,19.70
2018,08,18,11,30,19.70
2018,08,18,11,31,19.70
2018,08,18,11,32,19.70
2018,08,18,11,33,19.70
2018,08,18,11,34,19.60
2018,08,18,11,35,19.60
2018,08,18,11,36,19.70
2018,08,18,11,37,19.70
2018,08,18,11,38,19.70
2018,08,18,11,39,19.60
2018,08,18,11,40,19.60
2018,08,18,11,41,19.50
2018,08,18,11,42,19.60
2018,08,18,11,43,19.70
2018,08,18,11,44,19.70
2018,08,18,11,45,19.80
2018,08,18,11,46,19.80
2018,08,18,11,47,19.80
2018,08,18,11,48,19.80
2018,08,18,11,49,19.70
2018,08,18,11,50,19.70
2018,08,18,11,51,19.70
2018,08,18,11,52,19.70
2018,08,18,11,53,19.60
2018,08,18,11,54,19.60
2018,08,18,11,55,19.60
2018,08,18,11,56,19.60
2018,08,18,11,57,19.60
2018,08,18,11,58,19.50
2018,08,18,11,59,19.40
2018,08,18,12,00,19.40
2018,08,18,12,01,19.30
2018,08,18,12,02,19.30
2018,08,18,12,03,19.40
2018,08,18,12,04,19.40
2018,08,18,12,05,19.40
2018,08,18,12,06,19.40
2018,08,18,12,07,19.50
2018,08,18,12,08,19.50
2018,08,18,12,09,19.50
2018,08,18,12,10,19.60
2018,08,18,12,11,19.60
2018,08,18,12,12,19.70
2018,08,18,12,13,19.70
2018,08,18,12,14,19.80
2018,08,18,12,15,19.90
2018,08,18,12,16,19.90
2018,08,18,12,17,19.90
2018,08,18,12,18,19.90
2018,08,18,12,19,19.80
2018,08,18,12,20,19.90
2018,08,18,12,21,19.90
2018,08,18,12,22,20.10
2018,08,18,12,23,20.20
2018,08,18,12,24,20.20
2018,08,18,12,25,20.30
2018,08,18,12,26,20.40
2018,08,18,12,27,20.50
2018,08,18,12,28,20.40
2018,08,18,12,29,20.40
2018,08,18,12,30,20.30
2018,08,18,12,31,20.30
2018,08,18,12,32,20.30
2018,08,18,12,33,20.30
2018,08,18,12,34,20.30
2018,08,18,12,35,20.20
2018,08,18,12,36,20.10
2018,08,18,12,37,20.00
2018,08,18,12,38,19.90
2018,08,18,12,39,19.90
2018,08,18,12,40,19.90
2018,08,18,12,41,19.90
2018,08,18,12,42,20.00
2018,08,18,12,43,20.10
2018,08,18,12,44,20.20
2018,08,18,12,45,20.20
2018,08,18,12,46,20.20
2018,08,18,12,47,20.30
2018,08,18,12,48,20.30
2018,08,18,12,49,20.30
2018,08,18,12,50,20.30
2018,08,18,12,51,20.10
2018,08,18,12,52,20.10
2018,08,18,12,53,20.10
2018,08,18,12,54,20.10
2018,08,18,12,55,20.10
2018,08,18,12,56,20.20
2018,08,18,12,57,20.20
2018,08,18,12,58,20.20
2018,08,18,12,59,20.30
2018,08,18,13,00,20.40
2018,08,18,13,01,20.40
2018,08,18,13,02,20.40
2018,08,18,13,03,20.30
2018,08,18,13,04,20.20
2018,08,18,13,05,20.20
2018,08,18,13,06,20.20
2018,08,18,13,07,20.20
2018,08,18,13,08,20.30
2018,08,18,13,09,20.40
2018,08,18,13,10,20.50
2018,08,18,13,11,20.60
2018,08,18,13,12,20.70
2018,08,18,13,13,20.70
2018,08,18,13,14,20.80
2018,08,18,13,15,20.70
2018,08,18,13,16,20.60
2018,08,18,13,17,20.60
2018,08,18,13,18,20.60
2018,08,18,13,19,20.50
2018,08,18,13,20,20.40
2018,08,18,13,21,20.40
2018,08,18,13,22,20.40
2018,08,18,13,23,20.40
2018,08,18,13,24,20.50
2018,08,18,13,25,20.50
2018,08,18,13,26,20.50
2018,08,18,13,27,20.50
2018,08,18,13,28,20.60
2018,08,18,13,29,20.60
2018,08,18,13,30,20.60
2018,08,18,13,31,20.60
2018,08,18,13,32,20.70
2018,08,18,13,33,20.70
2018,08,18,13,34,20.90
2018,08,18,13,35,20.90
2018,08,18,13,36,20.90
2018,08,18,13,37,21.00
2018,08,18,13,38,21.10
2018,08,18,13,39,21.10
2018,08,18,13,40,21.20
2018,08,18,13,41,21.20
2018,08,18,13,42,21.20
2018,08,18,13,43,21.20
2018,08,18,13,44,21.30
2018,08,18,13,45,21.40
2018,08,18,13,46,21.50
2018,08,18,13,47,21.50
2018,08,18,13,48,21.60
2018,08,18,13,49,21.70
2018,08,18,13,50,21.70
2018,08,18,13,51,21.70
2018,08,18,13,52,21.70
2018,08,18,13,53,21.70
2018,08,18,13,54,21.60
2018,08,18,13,55,21.60
2018,08,18,13,56,21.70
2018,08,18,13,57,21.80
2018,08,18,13,58,22.00
2018,08,18,13,59,22.10
2018,08,18,14,00,22.20
2018,08,18,14,01,22.20
2018,08,18,14,02,22.20
2018,08,18,14,03,22.20
2018,08,18,14,04,22.20
2018,08,18,14,05,22.10
2018,08,18,14,06,22.10
2018,08,18,14,07,22.10
2018,08,18,14,08,22.10
2018,08,18,14,09,22.10
2018,08,18,14,10,22.10
2018,08,18,14,11,22.00
2018,08,18,14,12,21.90
2018,08,18,14,13,21.90
2018,08,18,14,14,21.80
2018,08,18,14,15,21.70
2018,08,18,14,16,21.70
2018,08,18,14,17,21.70
2018,08,18,14,18,21.70
2018,08,18,14,19,21.70
2018,08,18,14,20,21.80
2018,08,18,14,21,21.80
2018,08,18,14,22,21.90
2018,08,18,14,23,22.00
2018,08,18,14,24,22.10
2018,08,18,14,25,22.20
2018,08,18,14,26,22.30
2018,08,18,14,27,22.40
2018,08,18,14,28,22.50
2018,08,18,14,29,22.60
2018,08,18,14,30,22.80
2018,08,18,14,31,23.00
2018,08,18,14,32,23.10
2018,08,18,14,33,23.00
2018,08,18,14,34,22.90
2018,08,18,14,35,22.80
2018,08,18,14,36,22.70
2018,08,18,14,37,22.70
2018,08,18,14,38,22.60
2018,08,18,14,39,22.70
2018,08,18,14,40,22.70
2018,08,18,14,41,22.70
2018,08,18,14,42,22.80
2018,08,18,14,43,22.80
2018,08,18,14,44,22.80
2018,08,18,14,45,22.90
2018,08,18,14,46,23.00
2018,08,18,14,47,23.20
2018,08,18,14,48,23.30
2018,08,18,14,49,23.20
2018,08,18,14,50,23.20
2018,08,18,14,51,23.20
2018,08,18,14,52,23.20
2018,08,18,14,53,23.20
2018,08,18,14,54,23.20
2018,08,18,14,55,23.20
2018,08,18,14,56,23.10
2018,08,18,14,57,23.10
2018,08,18,14,58,23.20
2018,08,18,14,59,23.20
2018,08,18,15,00,23.30
2018,08,18,15,01,23.40
2018,08,18,15,02,23.40
2018,08,18,15,03,23.40
2018,08,18,15,04,23.40
2018,08,18,15,05,23.40
2018,08,18,15,06,23.40
2018,08,18,15,07,23.40
2018,08,18,15,08,23.40
2018,08,18,15,09,23.40
2018,08,18,15,10,23.40
2018,08,18,15,11,23.40
2018,08,18,15,12,23.50
2018,08,18,15,13,23.50
2018,08,18,15,14,23.50
2018,08,18,15,15,23.50
2018,08,18,15,16,23.60
2018,08,18,15,17,23.60
2018,08,18,15,18,23.50
2018,08,18,15,19,23.50
2018,08,18,15,20,23.50
2018,08,18,15,21,23.50
2018,08,18,15,22,23.50
2018,08,18,15,23,23.60
2018,08,18,15,24,23.60
2018,08,18,15,25,23.70
2018,08,18,15,26,23.80
2018,08,18,15,27,23.80
2018,08,18,15,28,23.90
2018,08,18,15,29,24.00
2018,08,18,15,30,24.00
2018,08,18,15,31,24.10
2018,08,18,15,32,24.20
2018,08,18,15,33,24.20
2018,08,18,15,34,24.20
2018,08,18,15,35,24.10
2018,08,18,15,36,24.10
2018,08,18,15,37,24.10
2018,08,18,15,38,24.00
2018,08,18,15,39,23.90
2018,08,18,15,40,23.90
2018,08,18,15,41,24.00
2018,08,18,15,42,23.90
2018,08,18,15,43,23.90
2018,08,18,15,44,23.90
2018,08,18,15,45,23.90
2018,08,18,15,46,23.90
2018,08,18,15,47,23.90
2018,08,18,15,48,23.90
2018,08,18,15,49,23.90
2018,08,18,15,50,24.00
2018,08,18,15,51,24.00
2018,08,18,15,52,24.00
2018,08,18,15,53,24.10
2018,08,18,15,54,24.00
2018,08,18,15,55,24.00
2018,08,18,15,56,24.00
2018,08,18,15,57,24.00
2018,08,18,15,58,24.00
2018,08,18,15,59,24.00
2018,08,18,16,00,24.00
2018,08,18,16,01,24.00
2018,08,18,16,02,24.00
2018,08,18,16,03,24.00
2018,08,18,16,04,24.00
2018,08,18,16,05,24.10
2018,08,18,16,06,24.10
2018,08,18,16,07,24.20
2018,08,18,16,08,24.30
2018,08,18,16,09,24.40
2018,08,18,16,10,24.50
2018,08,18,16,11,24.50
2018,08,18,16,12,24.50
2018,08,18,16,13,24.50
2018,08,18,16,14,24.60
2018,08,18,16,15,24.60
2018,08,18,16,16,24.70
2018,08,18,16,17,24.80
2018,08,18,16,18,24.80
2018,08,18,16,19,24.90
2018,08,18,16,20,24.90
2018,08,18,16,21,24.90
2018,08,18,16,22,24.90
2018,08,18,16,23,24.90
2018,08,18,16,24,24.90
2018,08,18,16,25,24.90
2018,08,18,16,26,24.90
2018,08,18,16,27,24.90
2018,08,18,16,28,24.80
2018,08,18,16,29,24.80
2018,08,18,16,30,24.70
2018,08,18,16,31,24.60
2018,08,18,16,32,24.50
2018,08,18,16,33,24.50
2018,08,18,16,34,24.50
2018,08,18,16,35,24.50
2018,08,18,16,36,24.50
2018,08,18,16,37,24.50
2018,08,18,16,38,24.50
2018,08,18,16,39,24.50
2018,08,18,16,40,24.50
2018,08,18,16,41,24.50
2018,08,18,16,42,24.40
2018,08,18,16,43,24.40
2018,08,18,16,44,24.50
2018,08,18,16,45,24.50
2018,08,18,16,46,24.50
2018,08,18,16,47,24.50
2018,08,18,16,48,24.50
2018,08,18,16,49,24.50
2018,08,18,16,50,24.50
2018,08,18,16,51,24.50
2018,08,18,16,52,24.50
2018,08,18,16,53,24.50
2018,08,18,16,54,24.50
2018,08,18,16,55,24.40
2018,08,18,16,56,24.40
2018,08,18,16,57,24.40
2018,08,18,16,58,24.40
2018,08,18,16,59,24.40
2018,08,18,17,00,24.40
2018,08,18,17,01,24.40
2018,08,18,17,02,24.40
2018,08,18,17,03,24.40
2018,08,18,17,04,24.50
2018,08,18,17,05,24.50
2018,08,18,17,06,24.50
2018,08,18,17,07,24.60
2018,08,18,17,08,24.60
2018,08,18,17,09,24.50
2018,08,18,17,10,24.60
2018,08,18,17,11,24.60
2018,08,18,17,12,24.60
2018,08,18,17,13,24.50
2018,08,18,17,14,24.50
2018,08,18,17,15,24.50
2018,08,18,17,16,24.50
2018,08,18,17,17,24.50
2018,08,18,17,18,24.50
2018,08,18,17,19,24.50